#timestamp,LO_Frequency,Hit,StdDev 
1645466415.6,286047000.2,N
1645466435.5,286047000.2,N
1645466455.3,286047000.5,N
1645466475.1,286047000.5,N
1645466495.9,286047000.7,N
1645466515.7,286047000.8,N
1645466535.5,286046998.6,N
1645466555.4,286046998.2,N
1645466575.2,286047001.0,N
1645466595.1,286047000.8,N
1645466596.0,286047000.8,N
1645466615.8,286046998.7,N
1645466635.6,286046998.6,N
1645466655.5,286046998.2,N
1645466675.3,286046999.1,N
1645466695.1,286046998.3,N
1645466715.9,286046999.3,N
1645466735.7,286046999.4,N
1645466755.6,286046998.4,N
1645466775.4,286046999.1,N
1645466795.2,286046999.0,N
1645466815.1,286046997.1,N
1645466816.0,286046997.1,N
1645466835.8,286046998.3,N
1645466855.7,286046998.3,N
1645466875.5,286047001.2,N
1645466895.3,286047000.6,N
1645466915.2,286047000.3,N
1645466935.0,286047000.4,N
1645466935.9,286047000.4,N
1645466955.8,286047000.1,N
1645466975.6,286047000.6,N
1645466995.4,286047000.9,N
1645467015.3,286046998.2,N
1645467035.1,286046998.2,N
1645467055.8,286047000.7,N
1645467075.7,286046999.9,N
1645467095.5,286046999.9,N
1645467115.3,286046998.7,N
1645467135.2,286046999.3,N
1645467155.0,286046999.5,N
1645467155.9,286046999.5,N
1645467175.8,286046999.1,N
1645467195.6,286046996.7,Y
1645467215.4,286046997.7,P
1645467235.3,286046997.7,N
1645467255.1,286046997.4,P
1645467275.9,286046997.9,N
1645467295.7,286046997.2,Y
1645467315.5,286047000.4,P
1645467335.4,286047000.6,N
1645467355.2,286047000.6,N
1645467375.0,286046998.7,N
1645467375.9,286046998.7,N
1645467395.8,286046998.8,N
1645467415.6,286047001.1,N
1645467435.5,286047001.2,N
1645467455.3,286047000.9,N
1645467475.1,286047000.6,N
1645467495.9,286046998.2,N
1645467515.7,286046998.4,N
1645467535.5,286046998.6,N
1645467555.4,286046998.4,N
1645467575.2,286046998.2,N
1645467595.1,286047000.5,N
1645467596.0,286047000.5,N
1645467615.8,286047000.3,N
1645467635.6,286046999.9,N
1645467655.5,286047000.1,N
1645467675.3,286047002.3,N
1645467695.1,286047000.1,N
1645467715.9,286047001.0,N
1645467735.7,286047000.4,N
1645467755.6,286047000.9,N
1645467775.4,286047002.7,N
1645467795.2,286046999.8,N
1645467815.1,286047001.0,N
1645467816.0,286047001.0,N
1645467835.8,286047000.2,N
1645467855.7,286047000.0,N
1645467875.5,286046999.9,N
1645467895.3,286047000.6,N
1645467915.2,286047000.0,N
1645467935.0,286046999.7,N
1645467935.9,286046999.7,N
1645467955.8,286047000.8,N
1645467975.6,286047002.8,N
1645467995.4,286047000.1,N
1645468015.3,286046999.9,N
1645468035.1,286047000.8,N
1645468055.8,286047002.8,N
1645468075.7,286046999.7,N
1645468095.5,286047000.2,N
1645468115.4,286046999.9,N
1645468135.2,286047001.1,N
1645468155.0,286047000.7,N
1645468155.9,286047000.7,N
1645468175.8,286046999.9,N
1645468195.6,286047000.1,N
1645468215.5,286047002.3,N
1645468235.3,286047002.8,Y
1645468255.1,286047000.4,P
1645468275.9,286046999.7,N
1645468295.7,286046999.9,N
1645468315.5,286046999.7,N
1645468335.4,286047000.1,N
1645468355.2,286047002.4,Y
1645468375.1,286047002.3,P
1645468376.0,286047002.3,N
1645468395.8,286047003.6,P
1645468415.6,286047003.8,N
1645468435.5,286047003.9,N
1645468455.3,286047003.9,N
1645468475.1,286047002.1,N
1645468495.9,286047002.5,N
1645468515.7,286047002.5,N
1645468535.6,286047004.4,Y
1645468555.4,286047002.0,P
1645468575.2,286046999.9,N
1645468595.1,286046999.9,N
1645468596.0,286046999.9,N
1645468615.8,286047000.6,N
1645468635.6,286046996.9,N
1645468655.5,286046999.6,N
1645468675.3,286046999.5,N
1645468695.2,286047001.1,N
1645468715.9,286047000.5,N
1645468735.7,286046998.5,N
1645468755.6,286046998.2,N
1645468775.4,286047000.8,N
1645468795.2,286047001.0,N
1645468815.1,286046998.8,N
1645468816.0,286046998.8,N
1645468835.8,286046999.3,N
1645468855.7,286046998.7,N
1645468875.5,286047001.1,N
1645468895.3,286046999.1,N
1645468915.2,286046999.1,N
1645468935.0,286046999.0,N
1645468935.9,286046999.0,N
1645468955.7,286046998.5,N
1645468975.6,286046999.6,N
1645468995.4,286046998.8,N
1645469015.3,286047001.0,N
1645469035.1,286047000.5,N
1645469055.8,286047000.7,N
1645469075.7,286046999.3,N
1645469095.5,286046996.5,Y
1645469115.4,286046998.4,P
1645469135.2,286046998.6,N
1645469155.0,286046998.9,N
1645469155.9,286046998.9,N
1645469175.8,286046999.1,N
1645469195.6,286046998.9,N
1645469215.4,286046999.5,N
1645469235.3,286046999.5,N
1645469255.1,286046998.2,Y
1645469275.9,286047000.5,P
1645469295.7,286047002.3,P
1645469315.5,286046999.7,N
1645469335.4,286047002.4,N
1645469355.2,286047002.8,N
1645469375.0,286047002.6,N
1645469375.9,286047002.6,N
1645469395.8,286046999.9,N
1645469415.6,286047000.9,N
1645469435.5,286047002.8,N
1645469455.3,286047000.1,N
1645469475.1,286046999.9,N
1645469495.9,286046999.7,N
1645469515.7,286047002.5,N
1645469535.5,286047002.6,N
1645469555.4,286047004.3,Y
1645469575.2,286047002.8,P
1645469595.1,286047000.2,N
1645469596.0,286047000.2,N
1645469615.8,286046999.8,N
1645469635.6,286047000.9,N
1645469655.5,286047000.7,N
1645469675.3,286047001.2,N
1645469695.1,286047001.0,N
1645469715.9,286047000.8,N
1645469735.7,286047001.6,N
1645469755.6,286047002.6,Y
1645469775.4,286047000.3,P
1645469795.2,286047000.8,N
1645469815.1,286046998.6,P
1645469816.0,286046998.6,N
1645469835.8,286047000.7,N
1645469855.7,286047000.9,N
1645469875.5,286047002.3,N
1645469895.3,286047000.0,N
1645469915.2,286047000.4,N
1645469935.9,286047001.1,N
1645469955.7,286046998.7,N
1645469975.6,286046999.6,N
1645469995.4,286046999.5,N
